• In Netherlands
  • List of Countries
  • For 7 days
  • Water Temperature
  • Satellite Maps
  • Weather Map
  • Weather Widgets
  • user-avatar
    Login

    Hourly Weather Klagenfurt

    Today, 18 October, Wednesday

    Time Temperature Precipitation Wind Pressure Humidity
    00:00 +10°C° 0 mm 1 mps 693 mmHg 81%
    01:00 +10°C° 0 mm 1 mps 693 mmHg 81%
    02:00 +10°C° 0 mm 1 mps 692 mmHg 81%
    03:00 +10°C° 0 mm 1 mps 692 mmHg 80%
    04:00 +9°C° 0 mm 1 mps 691 mmHg 80%
    05:00 +9°C° 0 mm 1 mps 691 mmHg 80%
    06:00 +9°C° 0 mm 1 mps 691 mmHg 79%
    07:00 +9°C° 0 mm 1 mps 691 mmHg 79%
    08:00 +11°C° 0 mm 1 mps 691 mmHg 71%
    09:00 +14°C° 0 mm 1 mps 692 mmHg 62%
    10:00 +16°C° 0 mm 1 mps 692 mmHg 54%
    11:00 +17°C° 0 mm 2 mps 692 mmHg 52%
    12:00 +18°C° 0 mm 2 mps 692 mmHg 50%
    13:00 +19°C° 0 mm 2 mps 692 mmHg 48%
    14:00 +18°C° 0 mm 2 mps 691 mmHg 53%
    15:00 +17°C° 0 mm 2 mps 691 mmHg 58%
    16:00 +16°C° 0 mm 2 mps 690 mmHg 63%
    17:00 +14°C° 0 mm 1 mps 690 mmHg 72%
    18:00 +12°C° 0 mm 1 mps 690 mmHg 81%
    19:00 +10°C° 0 mm 1 mps 689 mmHg 89%
    20:00 +10°C° 0 mm 1 mps 690 mmHg 90%
    21:00 +9°C° 0 mm 1 mps 690 mmHg 91%
    22:00 +9°C° 0 mm 1 mps 690 mmHg 92%
    23:00 +8°C° 0 mm 1 mps 690 mmHg 92%

    Tomorrow, 19 October, Thursday

    Time Temperature Precipitation Wind Pressure Humidity
    00:00 +8°C° 0 mm 1 mps 690 mmHg 92%
    01:00 +8°C° 0 mm 1 mps 689 mmHg 93%
    02:00 +8°C° 0 mm 1 mps 689 mmHg 93%
    03:00 +8°C° 0 mm 1 mps 689 mmHg 93%
    04:00 +7°C° 0 mm 1 mps 689 mmHg 92%
    05:00 +7°C° 0 mm 1 mps 689 mmHg 92%
    06:00 +7°C° 0 mm 1 mps 689 mmHg 91%
    07:00 +8°C° 0 mm 1 mps 689 mmHg 91%
    08:00 +10°C° 0 mm 1 mps 690 mmHg 81%
    09:00 +13°C° 0 mm 1 mps 690 mmHg 71%
    10:00 +15°C° 0 mm 1 mps 691 mmHg 62%
    11:00 +16°C° 0 mm 1 mps 691 mmHg 58%
    12:00 +17°C° 0 mm 2 mps 690 mmHg 54%
    13:00 +18°C° 0 mm 2 mps 690 mmHg 50%
    14:00 +17°C° 0 mm 2 mps 690 mmHg 55%
    15:00 +18°C° 0 mm 1 mps 690 mmHg 60%
    16:00 +16°C° 0 mm 1 mps 689 mmHg 64%
    17:00 +14°C° 0 mm 1 mps 689 mmHg 72%
    18:00 +12°C° 0 mm 1 mps 689 mmHg 80%
    19:00 +10°C° 0 mm 1 mps 689 mmHg 88%
    20:00 +9°C° 0 mm 1 mps 689 mmHg 89%
    21:00 +9°C° 0 mm 1 mps 689 mmHg 90%
    22:00 +9°C° 0 mm 1 mps 689 mmHg 91%
    23:00 +8°C° 0 mm 1 mps 689 mmHg 92%

    Day after tomorrow, 20 October, Friday

    Time Temperature Precipitation Wind Pressure Humidity
    00:00 +8°C° 0 mm 1 mps 689 mmHg 93%
    01:00 +8°C° 0 mm 1 mps 689 mmHg 93%
    02:00 +8°C° 0 mm 1 mps 689 mmHg 93%
    03:00 +8°C° 0 mm 1 mps 689 mmHg 94%
    04:00 +8°C° 0 mm 1 mps 689 mmHg 94%
    05:00 +8°C° 0 mm 1 mps 689 mmHg 93%
    06:00 +8°C° 0 mm 1 mps 689 mmHg 93%
    07:00 +8°C° 0 mm 1 mps 689 mmHg 92%
    08:00 +10°C° 0 mm 1 mps 690 mmHg 85%
    09:00 +12°C° 0 mm 1 mps 690 mmHg 77%
    10:00 +15°C° 0 mm 1 mps 691 mmHg 69%
    11:00 +15°C° 0 mm 1 mps 691 mmHg 67%
    12:00 +16°C° 0 mm 2 mps 691 mmHg 64%
    13:00 +17°C° 0 mm 2 mps 691 mmHg 62%
    14:00 +16°C° 0 mm 2 mps 691 mmHg 65%
    15:00 +16°C° 0 mm 2 mps 690 mmHg 69%
    16:00 +15°C° 0 mm 1 mps 690 mmHg 73%
    17:00 +14°C° 0 mm 1 mps 690 mmHg 80%
    18:00 +12°C° 0 mm 1 mps 690 mmHg 87%
    19:00 +10°C° 0 mm 1 mps 690 mmHg 94%
    20:00 +10°C° 0 mm 1 mps 691 mmHg 94%
    21:00 +10°C° 0 mm 1 mps 691 mmHg 95%
    22:00 +9°C° 0 mm 1 mps 691 mmHg 95%
    23:00 +9°C° 0 mm 1 mps 691 mmHg 95%

    21 October, Saturday

    Time Temperature Precipitation Wind Pressure Humidity
    00:00 +9°C° 0 mm 1 mps 691 mmHg 95%
    01:00 +9°C° 0 mm 1 mps 691 mmHg 94%
    02:00 +9°C° 0 mm 1 mps 691 mmHg 94%
    03:00 +9°C° 0 mm 1 mps 691 mmHg 93%
    04:00 +9°C° 0 mm 1 mps 691 mmHg 93%
    05:00 +9°C° 0 mm 1 mps 691 mmHg 92%
    06:00 +9°C° 0 mm 1 mps 691 mmHg 91%
    07:00 +9°C° 0 mm 1 mps 691 mmHg 91%
    08:00 +11°C° 0 mm 1 mps 692 mmHg 83%
    09:00 +13°C° 0 mm 1 mps 692 mmHg 76%
    10:00 +15°C° 0 mm 1 mps 693 mmHg 69%
    11:00 +16°C° 0 mm 1 mps 692 mmHg 65%
    12:00 +18°C° 0 mm 1 mps 692 mmHg 62%
    13:00 +19°C° 0 mm 1 mps 692 mmHg 58%
    14:00 +18°C° 0 mm 1 mps 692 mmHg 63%
    15:00 +18°C° 0 mm 1 mps 692 mmHg 68%
    16:00 +16°C° 0 mm 1 mps 691 mmHg 73%
    17:00 +14°C° 0 mm 1 mps 691 mmHg 80%
    18:00 +12°C° 0 mm 1 mps 691 mmHg 86%
    19:00 +11°C° 0 mm 1 mps 691 mmHg 93%
    20:00 +10°C° 0 mm 1 mps 691 mmHg 94%
    21:00 +10°C° 0 mm 1 mps 691 mmHg 94%
    22:00 +10°C° 0 mm 1 mps 691 mmHg 95%
    23:00 +10°C° 0 mm 1 mps 691 mmHg 95%

    22 October, Sunday

    Time Temperature Precipitation Wind Pressure Humidity
    00:00 +9°C° 0 mm 1 mps 690 mmHg 95%
    01:00 +9°C° 0 mm 1 mps 690 mmHg 95%
    02:00 +9°C° 0 mm 1 mps 690 mmHg 95%
    03:00 +9°C° 0 mm 1 mps 690 mmHg 95%
    04:00 +9°C° 0 mm 1 mps 689 mmHg 95%
    05:00 +9°C° 0 mm 1 mps 689 mmHg 95%
    06:00 +9°C° 0 mm 1 mps 689 mmHg 94%
    07:00 +8°C° 0 mm 0 mps 689 mmHg 94%
    08:00 +10°C° 0 mm 0 mps 689 mmHg 88%
    09:00 +11°C° 0 mm 0 mps 690 mmHg 83%
    10:00 +13°C° 0 mm 0 mps 690 mmHg 77%
    11:00 +14°C° 0.4 mm 1 mps 689 mmHg 79%
    12:00 +14°C° 0.4 mm 1 mps 689 mmHg 81%
    13:00 +14°C° 0.4 mm 1 mps 689 mmHg 82%
    14:00 +13°C° 3 mm 1 mps 688 mmHg 87%
    15:00 +12°C° 3 mm 1 mps 688 mmHg 91%
    16:00 +11°C° 3 mm 1 mps 688 mmHg 95%
    17:00 +9°C° 4.4 mm 2 mps 688 mmHg 94%
    18:00 +8°C° 4.4 mm 2 mps 688 mmHg 94%
    19:00 +8°C° 4.4 mm 2 mps 688 mmHg 93%
    20:00 +7°C° 1.4 mm 2 mps 689 mmHg 93%
    21:00 +7°C° 1.4 mm 2 mps 689 mmHg 93%
    22:00 +6°C° 1.4 mm 2 mps 690 mmHg 92%
    23:00 +6°C° 0.4 mm 2 mps 690 mmHg 92%

    23 October, Monday

    Time Temperature Precipitation Wind Pressure Humidity
    00:00 +6°C° 0.4 mm 2 mps 690 mmHg 91%
    01:00 +6°C° 0.4 mm 2 mps 690 mmHg 91%
    02:00 +6°C° 0 mm 2 mps 690 mmHg 90%
    03:00 +5°C° 0 mm 2 mps 690 mmHg 90%
    04:00 +5°C° 0 mm 2 mps 690 mmHg 90%
    05:00 +5°C° 0 mm 2 mps 691 mmHg 89%
    06:00 +4°C° 0 mm 2 mps 691 mmHg 89%
    07:00 +4°C° 0 mm 2 mps 691 mmHg 89%
    08:00 +6°C° 0 mm 2 mps 692 mmHg 81%
    09:00 +7°C° 0 mm 2 mps 692 mmHg 74%
    10:00 +9°C° 0 mm 2 mps 693 mmHg 67%
    11:00 +10°C° 0 mm 2 mps 693 mmHg 61%
    12:00 +12°C° 0 mm 2 mps 693 mmHg 55%
    13:00 +13°C° 0 mm 2 mps 693 mmHg 49%
    14:00 +12°C° 0 mm 2 mps 693 mmHg 53%
    15:00 +12°C° 0 mm 2 mps 693 mmHg 57%
    16:00 +11°C° 0 mm 1 mps 693 mmHg 61%
    17:00 +9°C° 0 mm 1 mps 694 mmHg 67%
    18:00 +7°C° 0 mm 1 mps 694 mmHg 73%
    19:00 +5°C° 0 mm 1 mps 694 mmHg 79%
    20:00 +5°C° 0 mm 1 mps 694 mmHg 81%
    21:00 +4°C° 0 mm 1 mps 695 mmHg 82%
    22:00 +4°C° 0 mm 1 mps 695 mmHg 83%
    23:00 +4°C° 0 mm 1 mps 695 mmHg 83%
    Show more